When you browse on this site, cookies collect data to enhance your experience and personalize the content and advertising you see.
Visit our Privacy Policy to learn more. By continuing to use the site, you agree to this use of cookies and data.
  • In Italy
  • List of Countries
  • For 7 days
  • Water Temperature
  • Satellite Maps
  • Weather Map
  • Weather Widgets
  • user-avatar
    Login

    Hourly Weather Tubolcy

    Today, 23 February, Saturday

    Time Temperature Precipitation Wind Pressure Humidity
    00:00 -12°C° 0 mm 4 mps 757 mmHg 84%
    01:00 -12°C° 0 mm 4 mps 757 mmHg 85%
    02:00 -13°C° 0 mm 3 mps 758 mmHg 88%
    03:00 -13°C° 0 mm 3 mps 758 mmHg 89%
    04:00 -13°C° 0 mm 3 mps 758 mmHg 91%
    05:00 -14°C° 0 mm 3 mps 758 mmHg 92%
    06:00 -13°C° 0 mm 3 mps 759 mmHg 91%
    07:00 -12°C° 0 mm 2 mps 759 mmHg 89%
    08:00 -12°C° 0 mm 2 mps 759 mmHg 86%
    09:00 -9°C° 0 mm 2 mps 759 mmHg 82%
    10:00 -9°C° 0 mm 3 mps 759 mmHg 77%
    11:00 -8°C° 0 mm 3 mps 759 mmHg 73%
    12:00 -8°C° 0 mm 4 mps 758 mmHg 73%
    13:00 -8°C° 0 mm 5 mps 757 mmHg 72%
    14:00 -7°C° 0 mm 5 mps 757 mmHg 72%
    15:00 -9°C° 0.3 mm 6 mps 756 mmHg 76%
    16:00 -9°C° 0.3 mm 6 mps 756 mmHg 80%
    17:00 -9°C° 0.3 mm 6 mps 755 mmHg 85%
    18:00 -9°C° 0.3 mm 6 mps 754 mmHg 86%
    19:00 -9°C° 0.3 mm 6 mps 754 mmHg 88%
    20:00 -9°C° 0.3 mm 6 mps 753 mmHg 89%
    21:00 -8°C° 0.3 mm 5 mps 753 mmHg 90%
    22:00 -7°C° 0.3 mm 5 mps 752 mmHg 91%
    23:00 -7°C° 0.3 mm 4 mps 752 mmHg 91%

    Tomorrow, 24 February, Sunday

    Time Temperature Precipitation Wind Pressure Humidity
    00:00 -5°C° 0.1 mm 4 mps 752 mmHg 92%
    01:00 -4°C° 0.1 mm 4 mps 752 mmHg 92%
    02:00 -4°C° 0.1 mm 4 mps 751 mmHg 93%
    03:00 -3°C° 0 mm 4 mps 751 mmHg 93%
    04:00 -3°C° 0 mm 4 mps 751 mmHg 94%
    05:00 -2°C° 0 mm 4 mps 751 mmHg 94%
    06:00 -2°C° 0 mm 4 mps 751 mmHg 95%
    07:00 -2°C° 0 mm 4 mps 751 mmHg 95%
    08:00 -2°C° 0 mm 4 mps 751 mmHg 95%
    09:00 -1°C° 0 mm 3 mps 751 mmHg 96%
    10:00 -1°C° 0 mm 3 mps 752 mmHg 98%
    11:00 -1°C° 0 mm 3 mps 752 mmHg 99%
    12:00 0°C° 0 mm 3 mps 751 mmHg 99%
    13:00 0°C° 0 mm 3 mps 751 mmHg 99%
    14:00 0°C° 0 mm 3 mps 751 mmHg 99%
    15:00 0°C° 0 mm 3 mps 751 mmHg 98%
    16:00 0°C° 0 mm 3 mps 751 mmHg 97%
    17:00 0°C° 0 mm 3 mps 750 mmHg 97%
    18:00 0°C° 0 mm 3 mps 750 mmHg 96%
    19:00 -1°C° 0 mm 4 mps 750 mmHg 96%
    20:00 -1°C° 0 mm 4 mps 749 mmHg 95%
    21:00 -1°C° 0 mm 4 mps 749 mmHg 95%
    22:00 -1°C° 0 mm 5 mps 748 mmHg 94%
    23:00 -1°C° 0 mm 5 mps 748 mmHg 94%

    Day after tomorrow, 25 February, Monday

    Time Temperature Precipitation Wind Pressure Humidity
    00:00 -1°C° 0.1 mm 5 mps 747 mmHg 94%
    01:00 -1°C° 0.1 mm 4 mps 747 mmHg 94%
    02:00 -1°C° 0.1 mm 4 mps 747 mmHg 93%
    03:00 -1°C° 0 mm 4 mps 747 mmHg 94%
    04:00 -1°C° 0 mm 4 mps 746 mmHg 94%
    05:00 -1°C° 0 mm 4 mps 746 mmHg 94%
    06:00 -2°C° 0 mm 4 mps 746 mmHg 93%
    07:00 -2°C° 0 mm 4 mps 745 mmHg 92%
    08:00 -3°C° 0 mm 4 mps 745 mmHg 91%
    09:00 -2°C° 0 mm 5 mps 745 mmHg 90%
    10:00 -1°C° 0 mm 5 mps 744 mmHg 89%
    11:00 -1°C° 0 mm 5 mps 744 mmHg 88%
    12:00 -2°C° 0 mm 6 mps 744 mmHg 87%
    13:00 -2°C° 0 mm 6 mps 743 mmHg 86%
    14:00 -2°C° 0 mm 6 mps 743 mmHg 86%
    15:00 -2°C° 0 mm 6 mps 743 mmHg 85%
    16:00 -2°C° 0 mm 6 mps 743 mmHg 84%
    17:00 -2°C° 0 mm 6 mps 742 mmHg 83%
    18:00 -2°C° 0 mm 6 mps 742 mmHg 84%
    19:00 -2°C° 0 mm 6 mps 742 mmHg 85%
    20:00 -2°C° 0 mm 6 mps 742 mmHg 86%
    21:00 -2°C° 0 mm 6 mps 742 mmHg 86%
    22:00 -2°C° 0 mm 6 mps 742 mmHg 86%
    23:00 -2°C° 0 mm 6 mps 742 mmHg 86%

    26 February, Tuesday

    Time Temperature Precipitation Wind Pressure Humidity
    00:00 -2°C° 0 mm 6 mps 742 mmHg 87%
    01:00 -3°C° 0 mm 6 mps 742 mmHg 88%
    02:00 -2°C° 0 mm 5 mps 741 mmHg 90%
    03:00 -2°C° 0 mm 5 mps 741 mmHg 90%
    04:00 -2°C° 0 mm 5 mps 740 mmHg 90%
    05:00 -2°C° 0 mm 5 mps 740 mmHg 90%
    06:00 -2°C° 0.2 mm 5 mps 739 mmHg 90%
    07:00 -2°C° 0.2 mm 5 mps 739 mmHg 90%
    08:00 -3°C° 0.2 mm 6 mps 739 mmHg 89%
    09:00 -2°C° 0.1 mm 5 mps 739 mmHg 90%
    10:00 -1°C° 0.1 mm 5 mps 738 mmHg 91%
    11:00 -1°C° 0.1 mm 5 mps 738 mmHg 91%
    12:00 -1°C° 0.1 mm 5 mps 738 mmHg 90%
    13:00 -1°C° 0.1 mm 5 mps 738 mmHg 89%
    14:00 -1°C° 0.1 mm 5 mps 738 mmHg 88%
    15:00 -1°C° 0 mm 5 mps 739 mmHg 87%
    16:00 -1°C° 0 mm 5 mps 739 mmHg 86%
    17:00 -1°C° 0 mm 5 mps 740 mmHg 85%
    18:00 -2°C° 0 mm 5 mps 740 mmHg 84%
    19:00 -2°C° 0 mm 5 mps 741 mmHg 83%
    20:00 -2°C° 0 mm 5 mps 741 mmHg 82%
    21:00 -4°C° 0 mm 5 mps 742 mmHg 82%
    22:00 -4°C° 0 mm 4 mps 742 mmHg 81%
    23:00 -4°C° 0 mm 4 mps 742 mmHg 81%

    27 February, Wednesday

    Time Temperature Precipitation Wind Pressure Humidity
    00:00 -5°C° 0 mm 4 mps 743 mmHg 83%
    01:00 -5°C° 0 mm 4 mps 743 mmHg 85%
    02:00 -7°C° 0 mm 4 mps 743 mmHg 88%
    03:00 -7°C° 0 mm 4 mps 743 mmHg 88%
    04:00 -6°C° 0 mm 3 mps 743 mmHg 89%
    05:00 -6°C° 0 mm 3 mps 743 mmHg 90%
    06:00 -6°C° 0 mm 3 mps 743 mmHg 89%
    07:00 -6°C° 0 mm 3 mps 743 mmHg 89%
    08:00 -6°C° 0 mm 3 mps 743 mmHg 89%
    09:00 -6°C° 0 mm 3 mps 743 mmHg 86%
    10:00 -5°C° 0 mm 3 mps 742 mmHg 84%
    11:00 -4°C° 0 mm 3 mps 742 mmHg 81%
    12:00 -3°C° 0 mm 4 mps 741 mmHg 84%
    13:00 -2°C° 0 mm 4 mps 741 mmHg 87%
    14:00 -2°C° 0 mm 5 mps 740 mmHg 90%
    15:00 -1°C° 0.1 mm 5 mps 739 mmHg 90%
    16:00 -1°C° 0.1 mm 5 mps 739 mmHg 90%
    17:00 -1°C° 0.1 mm 5 mps 738 mmHg 90%
    18:00 -1°C° 0 mm 5 mps 738 mmHg 89%
    19:00 -1°C° 0 mm 4 mps 738 mmHg 89%
    20:00 -1°C° 0 mm 4 mps 738 mmHg 89%
    21:00 -2°C° 0 mm 4 mps 737 mmHg 90%
    22:00 -3°C° 0 mm 4 mps 737 mmHg 92%
    23:00 -3°C° 0 mm 4 mps 737 mmHg 94%

    28 February, Thursday

    Time Temperature Precipitation Wind Pressure Humidity
    00:00 -3°C° 0 mm 4 mps 737 mmHg 94%
    01:00 -3°C° 0 mm 4 mps 736 mmHg 93%
    02:00 -3°C° 0 mm 4 mps 736 mmHg 93%
    03:00 -2°C° 0 mm 3 mps 735 mmHg 93%
    04:00 -4°C° 0 mm 3 mps 735 mmHg 94%
    05:00 -4°C° 0 mm 3 mps 734 mmHg 94%
    06:00 -4°C° 0 mm 3 mps 734 mmHg 93%
    07:00 -4°C° 0 mm 3 mps 733 mmHg 93%
    08:00 -4°C° 0 mm 3 mps 733 mmHg 93%
    09:00 -3°C° 0 mm 4 mps 732 mmHg 91%
    10:00 -2°C° 0 mm 4 mps 731 mmHg 89%
    11:00 -1°C° 0 mm 4 mps 730 mmHg 87%
    12:00 -1°C° 0.3 mm 4 mps 729 mmHg 87%
    13:00 -1°C° 0.3 mm 4 mps 728 mmHg 87%
    14:00 -1°C° 0.3 mm 4 mps 727 mmHg 87%
    15:00 -1°C° 0.5 mm 4 mps 726 mmHg 88%
    16:00 -1°C° 0.5 mm 5 mps 725 mmHg 89%
    17:00 -2°C° 0.5 mm 5 mps 724 mmHg 90%
    18:00 -1°C° 0.3 mm 5 mps 724 mmHg 91%
    19:00 -1°C° 0.3 mm 5 mps 723 mmHg 92%
    20:00 -1°C° 0.3 mm 5 mps 723 mmHg 93%
    21:00 -1°C° 0.1 mm 5 mps 723 mmHg 92%
    22:00 -1°C° 0.1 mm 5 mps 722 mmHg 90%
    23:00 -1°C° 0.1 mm 5 mps 722 mmHg 89%
    Show more